Weather History for Antigo, WI

Change the Weather History Date:

Thursday, January 12, 2012

  Actual Average Record
Temperature  
Mean Temperature 23 °F -  
Max Temperature 32 °F 19 °F 41 °F (1961)
Min Temperature 14 °F -1 °F -25 °F (1974)
Degree Days  
Heating Degree Days 42    
Moisture  
Dew Point 16 °F    
Average Humidity 85    
Maximum Humidity 93    
Minimum Humidity 74    
Precipitation  
Precipitation 0.00 in - - ()
Sea Level Pressure  
Sea Level Pressure 29.51 in    
Wind  
Wind Speed 17 mph (North)    
Max Wind Speed 25 mph    
Max Gust Speed 33 mph    
Visibility 5 miles    
Events Snow    
Averages and records for this station are not official NWS values.
T = Trace of Precipitation, MM = Missing Value Source: NWS Daily Summary

Daily Weather History Graph

Daily Weather History Graph

Search for Another Location

Airport:

Trip Planner

Search our weather history database for the weather conditions in past years. The results will help you decide how hot, cold, wet, or windy it might be!

Date:

Astronomy

Jan. 12, 2012 Rise Set
Actual Time 7:33 AM CST 4:36 PM CST
Civil Twilight 7:00 AM CST 5:09 PM CST
Nautical Twilight 6:23 AM CST 5:46 PM CST
Astronomical Twilight 5:48 AM CST 6:21 PM CST
Moon 8:55 PM CST (1/12) 9:05 AM CST (1/12)
Length of Visible Light 10h 09m
Length of Day
9h 02m
Waning Gibbous, 87% of the Moon is Illuminated
Jan 12
Waning Gibbous
Jan 16
Last Quarter
Jan 23
New
Jan 30
First Quarter
Feb 7
Full

Hourly Weather History & Observations

Time (CST) Temp. Windchill Dew Point Humidity Pressure Visibility Wind Dir Wind Speed Gust Speed Precip Events Conditions
12:15 AM 32.0 °F 21.6 °F 28.4 °F 87% 29.54 in 10.0 mi North 15.0 mph 19.6 mph N/A Snow Light Snow
12:35 AM 30.2 °F 20.2 °F 26.6 °F 86% 29.54 in 10.0 mi North 12.7 mph - N/A Snow Light Snow
12:55 AM 30.2 °F 20.2 °F 26.6 °F 86% 29.54 in 7.0 mi NNW 12.7 mph 17.3 mph N/A Snow Light Snow
1:15 AM 28.4 °F 17.5 °F 26.6 °F 93% 29.53 in 7.0 mi NNW 13.8 mph 17.3 mph N/A Snow Light Snow
1:35 AM 28.4 °F 18.0 °F 26.6 °F 93% 29.54 in 10.0 mi NNW 12.7 mph 17.3 mph N/A Snow Light Snow
1:55 AM 28.4 °F 18.5 °F 26.6 °F 93% 29.54 in 7.0 mi NNW 11.5 mph - N/A Snow Light Snow
2:15 AM 28.4 °F 15.1 °F 24.8 °F 86% 29.54 in 10.0 mi North 20.7 mph 25.3 mph N/A   Overcast
2:35 AM 28.4 °F 16.2 °F 24.8 °F 86% 29.54 in 10.0 mi North 17.3 mph 21.9 mph N/A Snow Light Snow
2:55 AM 26.6 °F 13.4 °F 23.0 °F 86% 29.54 in 10.0 mi North 18.4 mph 25.3 mph N/A   Overcast
3:15 AM 26.6 °F 12.7 °F 21.2 °F 80% 29.54 in 7.0 mi North 20.7 mph 27.6 mph N/A Snow Light Snow
3:35 AM 26.6 °F 13.8 °F 21.2 °F 80% 29.54 in 10.0 mi North 17.3 mph - N/A   Overcast
3:55 AM 24.8 °F 11.9 °F 21.2 °F 86% 29.54 in 10.0 mi NNW 16.1 mph - N/A   Overcast
4:35 AM 23.0 °F 10.6 °F 19.4 °F 86% 29.54 in 2.0 mi North 13.8 mph 18.4 mph N/A Snow Light Snow
4:55 AM 21.2 °F 8.3 °F 19.4 °F 93% 29.54 in 1.5 mi North 13.8 mph - N/A Snow Light Snow
5:15 AM 21.2 °F 8.3 °F 19.4 °F 93% 29.54 in 1.0 mi North 13.8 mph - N/A Snow Light Snow
5:35 AM 21.2 °F 8.9 °F 19.4 °F 93% 29.54 in 1.0 mi NNW 12.7 mph 18.4 mph N/A Snow Light Snow
5:55 AM 19.4 °F 4.5 °F 17.6 °F 93% 29.54 in 0.8 mi North 17.3 mph - N/A Snow Light Snow
6:15 AM 19.4 °F 6.0 °F 17.6 °F 93% 29.54 in 1.0 mi North 13.8 mph - N/A Snow Light Snow
6:35 AM 19.4 °F 7.9 °F 17.6 °F 93% 29.54 in 2.5 mi North 10.4 mph - N/A Snow Light Snow
6:55 AM 19.4 °F 4.5 °F 15.8 °F 86% 29.54 in 1.8 mi North 17.3 mph - N/A Snow Light Snow
7:15 AM 19.4 °F 3.2 °F 15.8 °F 86% 29.54 in 1.8 mi North 20.7 mph - N/A Snow Light Snow
7:35 AM 19.4 °F 3.6 °F 15.8 °F 86% 29.54 in 4.0 mi North 19.6 mph 26.5 mph N/A Snow Light Snow
7:55 AM 19.4 °F 4.1 °F 14.0 °F 80% 29.54 in 7.0 mi North 18.4 mph 26.5 mph N/A Snow Light Snow
8:15 AM 19.4 °F 2.8 °F 14.0 °F 80% 29.53 in 5.0 mi North 21.9 mph 27.6 mph N/A Snow Light Snow
8:35 AM 17.6 °F 0.9 °F 12.2 °F 79% 29.53 in 4.0 mi North 20.7 mph 26.5 mph N/A   Haze
9:15 AM 17.6 °F 1.3 °F 12.2 °F 79% 29.53 in 10.0 mi North 19.6 mph - N/A   Overcast
9:35 AM 19.4 °F 5.0 °F 14.0 °F 80% 29.52 in 10.0 mi North 16.1 mph 25.3 mph N/A   Overcast
9:55 AM 19.4 °F 3.2 °F 12.2 °F 74% 29.52 in 10.0 mi North 20.7 mph 26.5 mph N/A   Overcast
10:15 AM 19.4 °F 2.8 °F 12.2 °F 74% 29.52 in 10.0 mi North 21.9 mph 27.6 mph N/A   Overcast
10:35 AM 17.6 °F 1.7 °F 12.2 °F 79% 29.52 in 10.0 mi North 18.4 mph - N/A   Overcast
10:55 AM 17.6 °F 2.2 °F 12.2 °F 79% 29.51 in 5.0 mi North 17.3 mph - N/A Snow Light Snow
11:15 AM 17.6 °F 1.3 °F 14.0 °F 86% 29.50 in 2.5 mi North 19.6 mph - N/A Snow Light Snow
11:35 AM 17.6 °F 1.7 °F 14.0 °F 86% 29.49 in 2.5 mi North 18.4 mph - N/A Snow Light Snow
11:55 AM 17.6 °F 1.3 °F 14.0 °F 86% 29.48 in 4.0 mi North 19.6 mph - N/A Snow Light Snow
12:15 PM 17.6 °F 2.2 °F 14.0 °F 86% 29.48 in 2.5 mi North 17.3 mph - N/A Snow Light Snow
12:35 PM 17.6 °F 0.9 °F 14.0 °F 86% 29.47 in 2.5 mi North 20.7 mph - N/A Snow Light Snow
1:15 PM 17.6 °F 2.2 °F 14.0 °F 86% 29.46 in 2.0 mi North 17.3 mph 20.7 mph N/A Snow Light Snow
1:35 PM 17.6 °F 1.7 °F 12.2 °F 79% 29.46 in 1.8 mi North 18.4 mph - N/A Snow Light Snow
1:55 PM 17.6 °F 1.7 °F 14.0 °F 86% 29.46 in 2.5 mi North 18.4 mph - N/A Snow Light Snow
2:15 PM 17.6 °F 0.9 °F 14.0 °F 86% 29.46 in 2.0 mi North 20.7 mph - N/A Snow Light Snow
2:35 PM 17.6 °F 1.3 °F 12.2 °F 79% 29.46 in 2.5 mi NNW 19.6 mph 23.0 mph N/A Snow Light Snow
2:55 PM 17.6 °F 1.7 °F 12.2 °F 79% 29.47 in 2.5 mi NNW 18.4 mph 25.3 mph N/A Snow Light Snow
3:15 PM 17.6 °F 1.3 °F 12.2 °F 79% 29.47 in 2.5 mi North 19.6 mph 25.3 mph N/A Snow Light Snow
3:35 PM 17.6 °F 2.7 °F 12.2 °F 79% 29.48 in 2.5 mi North 16.1 mph 21.9 mph N/A Snow Light Snow
3:55 PM 15.8 °F -0.2 °F 12.2 °F 86% 29.48 in 2.5 mi NNW 17.3 mph 23.0 mph N/A Snow Light Snow
4:15 PM 15.8 °F 0.3 °F 12.2 °F 86% 29.49 in 2.5 mi NNW 16.1 mph 27.6 mph N/A Snow Light Snow
4:35 PM 15.8 °F -1.5 °F 12.2 °F 86% 29.49 in 2.5 mi North 20.7 mph 26.5 mph N/A Snow Light Snow
4:55 PM 15.8 °F -1.1 °F 12.2 °F 86% 29.49 in 2.5 mi North 19.6 mph 26.5 mph N/A Snow Light Snow
5:15 PM 15.8 °F -1.9 °F 10.4 °F 79% 29.50 in 2.5 mi North 21.9 mph 29.9 mph N/A Snow Light Snow
5:35 PM 15.8 °F -3.1 °F 10.4 °F 79% 29.50 in 2.5 mi North 25.3 mph 31.1 mph N/A Snow Light Snow
5:55 PM 15.8 °F -1.5 °F 10.4 °F 79% 29.50 in 3.0 mi North 20.7 mph 27.6 mph N/A Snow Light Snow
6:15 PM 14.0 °F -4.3 °F 10.4 °F 86% 29.50 in 2.5 mi North 21.9 mph 28.8 mph N/A Snow Light Snow
6:35 PM 14.0 °F -3.9 °F 10.4 °F 86% 29.51 in 2.5 mi North 20.7 mph 33.4 mph N/A Snow Light Snow
6:55 PM 14.0 °F -3.9 °F 10.4 °F 86% 29.51 in 3.0 mi North 20.7 mph 27.6 mph N/A Snow Light Snow
7:15 PM 14.0 °F -3.4 °F 10.4 °F 86% 29.51 in 3.0 mi North 19.6 mph - N/A Snow Light Snow
7:35 PM 14.0 °F -3.4 °F 10.4 °F 86% 29.51 in 4.0 mi North 19.6 mph 24.2 mph N/A Snow Light Snow
8:15 PM 14.0 °F -1.4 °F 10.4 °F 86% 29.51 in 3.0 mi NNW 15.0 mph 28.8 mph N/A Snow Light Snow
8:35 PM 14.0 °F -3.0 °F 10.4 °F 86% 29.52 in 3.0 mi North 18.4 mph 24.2 mph N/A Snow Light Snow
8:55 PM 14.0 °F -3.0 °F 8.6 °F 79% 29.52 in 7.0 mi NNW 18.4 mph 27.6 mph N/A   Overcast
9:15 PM 14.0 °F -4.7 °F 8.6 °F 79% 29.52 in 7.0 mi North 23.0 mph 28.8 mph N/A   Overcast
9:35 PM 14.0 °F -4.7 °F 8.6 °F 79% 29.52 in 5.0 mi North 23.0 mph 31.1 mph N/A Snow Light Snow
9:55 PM 14.0 °F -5.1 °F 8.6 °F 79% 29.52 in 7.0 mi North 24.2 mph 29.9 mph N/A Snow Light Snow
10:15 PM 14.0 °F -3.0 °F 8.6 °F 79% 29.52 in 5.0 mi North 18.4 mph 28.8 mph N/A Snow Light Snow
10:35 PM 14.0 °F -3.4 °F 8.6 °F 79% 29.52 in 7.0 mi North 19.6 mph 26.5 mph N/A Snow Light Snow
10:55 PM 14.0 °F -2.5 °F 8.6 °F 79% 29.52 in 4.0 mi NNW 17.3 mph 26.5 mph N/A Snow Light Snow
11:15 PM 14.0 °F -3.4 °F 10.4 °F 86% 29.52 in 2.5 mi North 19.6 mph 25.3 mph N/A Snow Light Snow
11:35 PM 14.0 °F -2.5 °F 10.4 °F 86% 29.53 in 3.0 mi NNW 17.3 mph 25.3 mph N/A Snow Light Snow
11:55 PM 14.0 °F -0.8 °F 10.4 °F 86% 29.53 in 3.0 mi NNW 13.8 mph 23.0 mph N/A Snow Light Snow